Location: Unspecified
(0.0000°N, 0.0000°E)
Time: 08:26:08
(UTC+02:00)

ATLAS V CENTAUR R/B - Visible Passes

Search period start: 30 May 2015 00:00
Search period end: 09 June 2015 00:00
Orbit: 225 x 29503 km, 18.0° (Epoch: 28 May)

Date Brightness Start Highest point End Pass type
(mag) Time Alt. Az. Time Alt. Az. Time Alt. Az.
30 May 6.6 15:52:51 10° WSW 15:58:27 87° NNW 23:13:46 10° E visible
31 May 6.2 02:03:14 10° WNW 08:38:33 27° SSW 08:43:43 10° SSE visible
31 May 8.2 17:37:11 10° W 17:49:33 68° N 01:22:48 10° E visible
01 Jun 8.6 19:22:54 10° W 19:58:36 65° N 03:14:14 10° ESE visible
02 Jun 8.0 21:11:38 10° WNW 04:37:25 81° SSW 05:00:12 10° ESE visible
03 Jun 7.0 23:07:54 10° WNW 06:32:54 56° SSW 06:43:34 10° SE visible
04 Jun 6.5 15:35:31 10° WSW 15:40:50 83° NNW 22:53:08 10° E visible
05 Jun 6.3 01:35:59 10° WNW 08:19:53 28° SSW 08:25:21 10° SSE visible
05 Jun 8.1 17:18:12 10° W 17:29:54 66° N 01:02:17 10° E visible
06 Jun 8.6 19:02:08 10° W 19:34:23 64° N 02:52:34 10° ESE visible
07 Jun 8.1 20:48:43 10° WNW 04:11:26 81° SSW 04:37:09 10° ESE visible
